Tracking 20242 objects as of 24-Jan-2020
HD Live streaming from Space Station
objects crossing your sky now

COSMOS 2251 DEB

Track COSMOS 2251 DEB now!
10-day predictions


NORAD ID: 34721
Int'l Code: 1993-036YP
Perigee: 772.6 km
Apogee: 1,113.4 km
Inclination: 73.9 °
Period: 103.8 minutes
Semi major axis: 7313 km
RCS: 0.0075 m2 (small)
Launch date: June 16, 1993
Source: Commonwealth of Independent States (former USSR) (CIS)
Launch site: PLESETSK MISSILE AND SPACE COMPLEX (PKMTR)

Note: This is SATELLITE DEBRIS
aabbcc
Your satellite tracking list
Your tracking list is empty




NASA's NSSDC Master Catalog

Two Line Element Set (TLE):
1 34721U 93036YP  20023.53748789 +.00000461 +00000-0 +32763-3 0  9991
2 34721 073.9258 058.1258 0232966 063.7053 084.9572 13.87946002552584
Source of the keplerian elements: AFSPC